Miscellaneous Local Product
Issued by NWS North Platte, NE

Home | Current Version | Previous Version | Text Only | Print | Product List | Glossary On
Versions: 1 2 3 4 5 6 7 8 9 10 11 12 13 14 15 16 17 18 19 20 21 22 23 24 25 26 27 28 29 30 31 32 33 34 35 36 37 38 39 40 41 42 43 44 45 46 47 48 49 50
000
AXUS43 KLBF 281210
MISLBF


WESTERN AND NORTH CENTRAL NEBRASKA HOURLY WEATHER ROUNDUP
NATIONAL WEATHER SERVICE NORTH PLATTE NE
700 AM CDT WED SEP 28 2016

NOTE: "FAIR" INDICATES FEW OR NO CLOUDS BELOW 12,000 FEET WITH NO
SIGNIFICANT WEATHER AND/OR OBSTRUCTIONS TO VISIBILITY.

NOTE: STATIONS NOT REPORTING VARIABLES SUCH AS SKY/WEATHER OR
PRESSURE ARE PROVIDED BY RAWS AND APRS NETWORKS AND ARE NOT UNDER
NATIONAL WEATHER SERVICE QUALITY CONTROL.

...OBSERVATIONS IN AND NEAR THE EASTERN PANHANDLE OF NEBRASKA...

CITY           SKY/WX    TMP DP  RH WIND       PRES   REMARKS
PINE RIDGE     CLEAR     37  36  96 CALM      30.20R
CHADRON        CLEAR     44  40  85 SW5       30.21R
ALLIANCE       CLEAR     40  38  93 W7        30.21R
SIDNEY         CLEAR     44  37  76 NW12      30.23R
$$

...OBSERVATIONS IN NORTHERN NEBRASKA AND FAR SOUTHERN SOUTH DAKOTA...

CITY           SKY/WX    TMP DP  RH WIND       PRES   REMARKS
WINNER         FAIR      47  42  83 CALM      30.16R
VALENTINE      CLOUDY    38  35  89 CALM      30.17R
THEDFORD       CLEAR     44  41  89 CALM      30.17R
AINSWORTH      CLOUDY    42  40  93 N6        30.16R
O`NEILL        CLOUDY    44  38  79 N7        30.14R
ORD            CLEAR     46  39  76 W7        30.12R
BROKEN BOW     CLEAR     46  42  86 N6        30.13R
$$

...OBSERVATIONS IN SOUTHWEST NEBRASKA AND FAR NORTHEAST COLORADO...

CITY           SKY/WX    TMP DP  RH WIND       PRES   REMARKS
WRAY           FAIR      41  32  70 SW6       30.19R
HOLYOKE        FAIR      46  37  71 W7        30.19R
IMPERIAL       CLEAR     47  38  71 NW5       30.16R
OGALLALA       CLEAR     42  39  89 W5        30.18R
NORTH PLATTE   CLEAR     42  39  89 CALM      30.16R
MCCOOK         CLEAR     45  40  82 W7        30.13R
LEXINGTON      CLEAR     42  40  90 NW3       30.13R
GOTHENBURG       N/A     49  40  72 NW3         N/A
CALLAWAY         N/A     45  42  88 NW3         N/A
$$

...OBSERVATIONS IN CENTRAL LINCOLN COUNTY AREA...

CITY           SKY/WX    TMP DP  RH WIND       PRES   REMARKS
N.P. AIRPORT   CLEAR     42  39  89 CALM      30.16R
$$

...SOME OBSERVATIONS FROM AROUND THE REGION...

CITY           SKY/WX    TMP DP  RH WIND       PRES   REMARKS
DENVER         CLEAR     50  29  44 SW7       30.28R
LARAMIE        CLOUDY    34  30  85 SW5       30.38R WCI  30
CHEYENNE       CLOUDY    46  31  55 NW9       30.32R
SCOTTSBLUFF    CLEAR     47  39  74 NW7       30.23R
RAPID CITY     CLEAR     53  40  61 NW10      30.17R
BISMARCK       CLOUDY    37  35  92 NE6       30.20R WCI  32
PIERRE         CLOUDY    40  35  83 E3        30.16R
SIOUX FALLS    CLOUDY    44  42  93 CALM      30.12R
OMAHA          CLEAR     47  42  83 N9        30.05R
GRAND ISLAND   CLEAR     46  42  86 NW8       30.10R
KANSAS CITY    CLEAR     53  46  77 N8        29.96R
WICHITA        CLEAR     59  52  77 NW9       29.96R
OKLAHOMA CITY  PTCLDY    56  49  77 SW5       30.00R
DALLAS         MOCLDY    60  51  72 SW6       30.03R
AMARILLO       CLEAR     54  38  54 W5        30.15R
DODGE CITY     CLEAR     52  40  63 NW7       30.08R
HAYS           CLEAR     54  39  58 N8        30.06R
GOODLAND       CLEAR     45  36  70 W7        30.16R
$$




USA.gov is the U.S. government's official web portal to all federal, state and local government web resources and services.